weather.gov     
National Weather Service

Terminal Aerodrome Forecast
NWS Homepage
This page is being discontinued on March 12, 2014.
The same data is available at this site. Please update your bookmarks.
Thank you, and we apologize for the inconvenience.
Please send an email to SR-SRH.Webmaster@noaa.gov with any concerns.


Current Version
Previous Version:    01  02  03  04  05  06  07  08  09  10  11  12  13  14  15  16  17  18  19  20  21  22  23  24  25  26  27  28  29  30  
   31  32  33  34  35  36  37  38  39  40  41  42  43  44  45  46  47  48  49  
[Printable]
294
FTUS42 KCAE 231200 AAA
TAFCUB
TAF AMD
KCUB 231246Z 2313/2412 00000KT 3SM -RA BR SCT005 OVC035
      TEMPO 2313/2316 2SM -RA BR OVC005
     FM231600 VRB03KT 2SM -RA BR OVC004
     FM232300 VRB04KT 4SM -RA BR BKN006 OVC015
      TEMPO 2323/2402 2SM -TSRA BR BKN008CB
     FM240400 21008KT 5SM BR VCSH OVC008=


U.S. Dept. of Commerce
NOAA National Weather Service
1325 East West Highway
Silver Spring, MD 20910
E-mail: w-nws.webmaster@noaa.gov
Page last modified: May 16, 2007
NATIONAL WEATHER SERVICE: for Safety, for Work, for Fun - FOR LIFE